Location: Erp
(42.9417°N, 1.2009°E)
Time: 15:05:54
(UTC+00:00)

BREEZE-M DEB (TANK) - Pass Details

Date: 12 January 2026
Orbit: 761 x 22165 km, 51.3° (Epoch: 17 February)

Event Time Altitude Azimuth Distance (km) Brightness Sun altitude
Rises 17:00:27 0° 251° (WSW) 6,101 10.2 -3.7°
Reaches altitude 10° 17:05:31 10° 256° (WSW) 3,807 8.3 -4.6°
Maximum altitude 17:12:31 53° 335° (NNW) 1,043 3.7 -5.7°
Drops below altitude 10° 17:16:42 10° 54° (NE) 2,307 4.8 -6.4°
Enters shadow 17:17:13 - 56° (NE) 2,552 5.0 -6.5°
